Tracking 28790 objects as of 19-Apr-2024
HD Live streaming from Space Station
objects crossing your sky now

FENGYUN 1C DEB

Track FENGYUN 1C DEB now!
10-day predictions


NORAD ID: 31066
Int'l Code: 1999-025BFL
Perigee: 421.3 km
Apogee: 550.3 km
Inclination: 99.0 °
Period: 94.2 minutes
Semi major axis: 6856 km
RCS: 0.002 m2 (small)
Launch date: May 10, 1999
Source: People's Republic of China (PRC)
Launch site: Taiyaun Space Center, China (TSC)

Note: This is SATELLITE DEBRIS
Your satellite tracking list
Your tracking list is empty




NASA's NSSDC Master Catalog

Two Line Element Set (TLE):
1 31066U 99025BFL 24109.37065115  .00088108  00000-0  27095-2 0  9995
2 31066  98.9967 251.9297 0094053 239.8978 119.2908 15.29041820925668
Source of the keplerian elements: AFSPC